ASTRA 2C

Last updated on Jan. 29, 2020, 4:37 a.m. UTC

1 26853U 01025A   20028.79122817  .00000134  00000-0  00000-0 0  9999
2 26853   2.5033  86.5758 0002723 220.5585 128.8804  1.00273833 21673
UTC
Height (km)
Latitude
Longitude
Inclination
Orbital Period
UTC large
Height (km)
Speed (km/s)
/
Latitude / Longitude
Inclination (degrees)
Orbital Period (minutes)
Azimuth
Elevation
Range (km)
Doppler Factor
iOS Compass Heading
iOS Angle

Next 30 passes for location: Hong Kong

Rise time Rise Azimuth (degrees) Set time Set Azimuth (degrees) Duration Max altitude (degrees)

No matching passes for this satellites